Back to catalog

COSMOS 590

AliveMilitaryLEO
NORAD 6847·PAYLOAD·🇷🇺 Russia

Launched Oct 2, 1973 from Plesetsk Cosmodrome

Loading…

Next Passes (next 24 hours)

TLE

FreshSource: Space-Track

Epoch: Sep 14, 2026, 14:11 UTC

1 06847U 73069C   26257.59129134 -.00000005  00000-0  70198-4 0  9991
2 06847  73.9985 114.0240 0034719 223.5798 164.1504 12.51111609418258

Track COSMOS 590 in real time with AllMySat

Download on the App Store